Date,TemperatureHighF,TemperatureAvgF,TemperatureLowF,DewpointHighF,DewpointAvgF,DewpointLowF,HumidityHigh,HumidityAvg,HumidityLow,PressureMaxIn,PressureMinIn,WindSpeedMaxMPH,WindSpeedAvgMPH,GustSpeedMaxMPH,PrecipitationSumIn
2014-3-1,50.0,43.8,41.0,44.0,38.4,-99.9,91,84,78,30.29,30.22,9,6,0,0.00
2014-3-2,63.0,52.3,39.0,58.0,45.8,36.0,96,80,48,30.23,29.97,9,3,0,0.00
2014-3-3,62.0,48.2,35.0,55.0,44.1,33.0,94,86,62,30.16,29.90,19,10,0,0.00
2014-3-4,42.0,38.1,35.0,39.0,35.9,32.0,97,92,86,30.21,30.12,16,12,0,0.00
2014-3-5,41.0,38.9,37.0,39.0,37.6,36.0,97,95,86,30.22,30.08,13,9,0,0.00
2014-3-6,49.0,44.7,40.0,46.0,42.2,36.0,97,90,83,30.28,30.04,13,9,0,0.00
2014-3-7,51.0,45.6,40.0,50.0,44.6,39.0,99,97,96,30.03,29.53,22,13,0,0.00
2014-3-8,56.0,46.3,38.0,47.0,39.5,-99.9,95,81,57,30.04,29.72,17,8,0,0.00
2014-3-9,53.0,48.4,40.0,47.0,44.1,37.0,93,85,73,30.08,29.96,9,6,0,0.00
2014-3-10,66.0,51.1,39.0,50.0,42.4,36.0,93,75,41,30.06,29.82,6,2,0,0.00
2014-3-11,67.0,57.1,52.0,52.0,49.2,46.0,88,76,52,29.83,29.72,10,6,0,0.00
2014-3-12,63.0,58.2,55.0,58.0,55.0,52.0,95,90,82,29.73,29.33,13,9,0,0.00
2014-3-13,57.0,43.1,39.0,55.0,24.0,12.0,93,49,31,30.24,29.40,15,11,0,0.00
2014-3-14,56.0,45.4,32.0,45.0,24.6,11.0,67,45,25,30.38,30.19,10,5,0,0.00
2014-3-15,67.0,59.5,56.0,52.0,49.2,42.0,84,70,40,30.18,29.96,12,7,0,0.00
2014-3-16,62.0,53.8,48.0,57.0,48.9,-99.9,98,87,69,30.06,29.82,8,3,0,0.00
2014-3-17,53.0,45.0,42.0,52.0,42.5,-99.9,98,95,92,29.88,29.70,16,11,0,0.00
2014-3-18,57.0,48.5,46.0,57.0,47.7,45.0,99,98,96,30.03,29.74,19,12,0,0.00
2014-3-19,62.0,51.9,46.0,61.0,51.1,45.0,99,98,95,30.11,29.96,11,6,0,0.00
2014-3-20,62.0,52.2,47.0,52.0,46.8,-99.9,99,87,61,30.02,29.94,9,5,0,0.00
2014-3-21,62.0,52.8,46.0,50.0,37.3,-99.9,94,62,29,30.18,30.02,10,3,0,0.00
2014-3-22,69.0,61.3,52.0,61.0,52.9,44.0,90,74,54,30.14,29.98,11,5,0,0.00
2014-3-23,63.0,51.9,41.0,60.0,47.1,-99.9,96,86,73,30.08,29.90,19,9,0,0.00
2014-3-24,42.0,39.3,35.0,38.0,29.6,25.0,87,68,56,30.26,30.08,13,8,0,0.00
2014-3-25,49.0,43.9,39.0,47.0,38.5,24.0,97,82,52,30.20,29.59,16,6,0,0.00
2014-3-26,44.0,39.7,36.0,36.0,25.4,19.0,89,59,38,30.34,29.74,18,11,0,0.00
2014-3-27,50.0,41.7,36.0,45.0,28.8,20.0,91,61,39,30.54,30.35,6,3,0,0.00
2014-3-28,67.0,60.5,52.0,59.0,53.4,46.0,89,78,62,30.39,30.21,10,6,0,0.00
2014-3-29,70.0,65.2,63.0,67.0,62.1,58.0,96,90,80,30.21,29.66,12,8,0,0.00